• Join FlightAware (Why Join?)
  • Login
  • US Flag GB Flag 
17:37 EDT


 

Airport Tracker/Info


-or-


 

Live Flight TrackerFlight Track Log ✈ RPA3242 ✈ 24-May-2013 ✈ KPHL - KALB

Flight Track Log - Related Links

Times and Time Zones

All times are in EDT time to prevent confusion due to time zone crossing. See the RPA3242 flight status page for this flight to view local times or setup timezone preferences in your user account.

Time Position Orientation Groundspeed Altitude Reporting Facility
EDT Latitude Longitude Course Direction KTS MPH feet Rate Location/Type
21:40 39.8667 -75.2667 38° Northeast 162 186 600  Level Philadelphia TRACON
21:41 39.8333 -75.3000 218° Southwest 191 220 2,000 1,860 Climbing Philadelphia TRACON
21:42 39.7667 -75.3500 210° Southwest 278 320 4,000 2,580 Climbing Philadelphia TRACON
21:43 39.8055 -74.8109 105° East  Level FlightAware Approximate
21:44 39.7842 -74.7043 105° East  Level FlightAware Approximate
21:44 39.6956 -75.2306 128° Southeast 172 198 10,800  Level New York Center
21:45 39.8477 -74.6357 37° Northeast  Level FlightAware Approximate
21:45 39.7164 -75.1239 76° East 241 277 12,300  Level New York Center
21:46 39.9148 -74.5685 38° Northeast  Level FlightAware Approximate
21:46 39.7400 -74.9906 77° East 298 343 12,200  Level New York Center
21:47 39.7606 -74.8836 76° East 335 386 12,200 600 Level New York Center
21:48 39.7856 -74.7636 75° East 340 391 13,500 1,800 Climbing New York Center
21:49 39.8578 -74.6569 49° Northeast 341 392 15,900 1,860 Climbing New York Center
21:50 39.9442 -74.5694 38° Northeast 351 404 17,300 1,680 Climbing New York Center
21:51 40.0344 -74.4822 36° Northeast 373 429 19,300 1,680 Climbing New York Center
21:52 40.1269 -74.3894 37° Northeast 401 461 20,700 1,620 Climbing New York Center
21:53 40.2258 -74.2914 37° Northeast 421 484 22,600 1,620 Climbing New York Center
21:54 40.3286 -74.1958 35° Northeast 435 501 24,000 660 Climbing New York Center
21:55 40.4456 -74.1092 29° Northeast 457 526 24,000  Level New York Center
21:56 40.5669 -74.0247 28° Northeast 478 550 24,000  Level New York Center
21:59 40.8247 -73.8225 31° Northeast 488 562 24,000 -60 Level Boston Center
22:00 40.9411 -73.6739 44° Northeast 476 548 23,900  Descending Boston Center
22:01 41.0297 -73.5764 40° Northeast 471 542 24,000 -360 Climbing Boston Center
22:02 41.1244 -73.4597 43° Northeast 465 535 23,200 -1,380 Descending Boston Center
22:03 41.2342 -73.3206 44° Northeast 440 506 21,000 -2,040 Descending Boston Center
22:04 41.3242 -73.2417 33° Northeast 422 486 19,200 -1,020 Descending Boston Center
22:05 41.4469 -73.2625 353° North 381 438 19,000 -120 Descending Boston Center
22:06 41.5469 -73.3000 344° North 395 455 19,000  Level Boston Center
22:07 41.6611 -73.3458 343° North 395 455 19,000  Level Boston Center
22:08 41.7711 -73.3892 344° North 402 463 19,000 -300 Level Boston Center
22:09 41.8750 -73.4325 343° North 402 463 18,400 -1,080 Descending Boston Center
22:10 41.9747 -73.4733 343° North 390 449 16,900 -1,140 Descending Boston Center
22:10 42.0039 -73.4850 343° North 379 436 17,000 -840 Climbing Boston Center
22:11 42.0639 -73.5083 344° North 373 429 16,200 -1,500 Descending Boston Center
22:12 42.1617 -73.5436 345° North 364 419 14,600 -1,380 Descending Boston Center
22:13 42.2444 -73.5956 335° Northwest 363 418 13,300 -2,040 Descending Boston Center
22:14 42.3356 -73.6533 335° Northwest 309 356 10,500 -2,640 Descending Boston Center
22:15 42.4081 -73.6997 335° Northwest 281 323 8,200 -2,220 Descending Boston Center
22:16 42.4722 -73.7461 332° Northwest 261 300 6,100 -1,860 Descending Boston Center
22:17 42.5217 -73.7781 335° Northwest 172 198 4,500 -1,620 Descending Boston Center
22:18 42.5653 -73.7989 341° North 175 201 2,800 -960 Descending Boston Center
22:19 42.5964 -73.8022 355° North 116 133 2,600 -180 Descending Boston Center
22:20 42.6297 -73.8003 North 116 133 2,500 -420 Descending Boston Center
22:21 42.6631 -73.8039 355° North 120 138 1,800 -720 Descending Boston Center
22:22 42.6986 -73.8044 359° North 124 143 1,100 -720 Descending Boston Center